{"data":{"norad_id":66675,"epoch":"2026-09-20T11:06:14.844384Z","epoch_age_seconds":124082,"freshness":"FRESH","line1":"1 66675U 25276K   26263.46267181  .00005801  00000+0  25513-3 0  9998","line2":"2 66675  97.4092 335.6037 0006400  44.2642 315.9105 15.22244123 44910","mean_motion":15.22244123,"eccentricity":0.00064,"inclination_deg":97.4092,"raan_deg":335.6037,"arg_perigee_deg":44.2642,"mean_anomaly_deg":315.9105,"bstar":0.00025513,"rev_number":4491,"period_min":94.597179141154,"perigee_km":494.67186992684,"apogee_km":503.47469909102,"semimajor_km":6877.2102845089,"source":"CELESTRAK","updated_at":"2026-09-21T09:00:16.121548Z"}}